Location: Wellington
(41.3000°S, 174.7830°E)
Time: 23:57:50
(UTC+13:00)

Cosmos 1869 Rocket - Pass Details

Date: 24 January 2019
Orbit: 605 x 633 km, 82.5° (Epoch: 15 October)

Event Time Altitude Azimuth Distance (km) Brightness Sun altitude
Rises 22:27:43 0° 183° (S) 2,918 7.8 -15.8°
Reaches altitude 10° 22:30:02 10° 177° (S) 2,001 6.8 -16.1°
Maximum altitude 22:34:20 50° 101° (ESE) 790 3.8 -16.7°
Enters shadow 22:35:55 33° 46° (NE) 1,038 4.1 -16.9°
